FW6664 Weather Reports


Display with metric or nautical units.
time (UTC)temp
F
wind
direction
speed
MPH
gust
MPH
rain 1hr
in
rain 24hr
in
rain mn
in
humidity
%
barometer
mb
20201204233054 72 292 2.0 5.0 0.00 0.47 0.00 11 1019.3
20201204232817 73 286 3.0 0.0 0.00 0.00 0.00 11 1019.3
20201204232332 73 288 6.0 0.0 0.00 0.00 0.00 11 1019.3
20201204232149 73 300 3.0 6.0 0.00 0.47 0.00 11 1019.3
20201204231822 73 287 2.0 0.0 0.00 0.00 0.00 11 1019.3
20201204231539 73 289 4.0 6.0 0.00 0.47 0.00 11 1019.4
20201204231300 73 287 5.0 0.0 0.00 0.00 0.00 11 1019.4
20201204230806 74 318 4.0 0.0 0.00 0.00 0.00 11 1019.3
20201204230258 74 294 5.0 0.0 0.00 0.00 0.00 11 1019.2
20201204230033 73 286 3.0 6.0 0.00 0.47 0.00 11 1019.2
20201204225808 74 218 4.0 0.0 0.00 0.00 0.00 11 1019.2
20201204225314 74 293 4.0 0.0 0.00 0.00 0.00 11 1019.3
20201204224802 74 293 3.0 0.0 0.00 0.00 0.00 11 1019.3
20201204224540 73 293 3.0 6.0 0.00 0.47 0.00 11 1019.3
20201204224310 74 266 6.0 0.0 0.00 0.00 0.00 11 1019.4
20201204224020 74 313 5.0 6.0 0.47 0.47 0.00 11 1019.3
20201204223758 74 291 8.0 0.0 0.00 0.00 0.00 11 1019.4
20201204223510 73 269 3.0 5.0 0.47 0.47 0.00 11 1019.3
20201204223312 74 292 5.0 0.0 0.00 0.00 0.00 11 1019.2
20201204222802 73 275 4.0 0.0 0.00 0.00 0.00 11 1019.3
20201204222622 73 299 2.0 6.0 0.47 0.47 0.00 11 1019.1
20201204222311 73 293 3.0 0.0 0.00 0.00 0.00 12 1019.2
20201204222022 73 294 4.0 6.0 0.47 0.47 0.00 11 1019.2
20201204221758 73 283 8.0 0.0 0.00 0.00 0.00 13 1019.3
20201204221533 72 254 2.0 6.0 0.47 0.47 0.00 13 1019.3
20201204221257 73 215 3.0 0.0 0.00 0.00 0.00 13 1019.2
20201204221021 73 269 3.0 8.0 0.47 0.47 0.00 13 1019.3
20201204220819 73 283 2.0 0.0 0.00 0.00 0.00 13 1019.2
20201204220308 73 210 5.0 0.0 0.00 0.00 0.00 11 1019.3
20201204220032 72 294 2.0 6.0 0.47 0.47 0.00 12 1019.2
20201204215818 73 278 6.0 0.0 0.00 0.00 0.00 11 1019.3
20201204215259 73 287 2.0 0.0 0.00 0.00 0.00 10 1019.3
20201204215025 72 285 6.0 7.0 0.47 0.47 0.00 10 1019.3
20201204214810 73 279 7.0 0.0 0.00 0.00 0.00 10 1019.3
20201204214313 73 279 5.0 0.0 0.00 0.00 0.00 9 1019.3
20201204214055 72 257 3.0 0.0 0.47 0.47 0.00 9 1019.3
20201204191802 70 282 4.0 0.0 0.00 0.00 0.00 9 1021.2
20201204191306 71 239 8.0 0.0 0.00 0.00 0.00 9 1021.1
20201204191113 70 236 3.0 5.0 0.00 0.47 0.00 9 1021.2
20201204190804 70 305 2.0 0.0 0.00 0.00 0.00 9 1021.2
20201204190315 70 240 3.0 0.0 0.00 0.00 0.00 9 1021.3
20201204190239 70 240 2.0 5.0 0.00 0.47 0.00 9 1021.3
20201204185759 70 249 5.0 0.0 0.00 0.00 0.00 9 1021.4
20201204185520 70 283 2.0 6.0 0.00 0.47 0.00 9 1021.4
20201204185316 70 283 6.0 0.0 0.00 0.00 0.00 9 1021.5
20201204184758 70 283 4.0 0.0 0.00 0.00 0.00 9 1021.5
20201204184259 69 288 4.0 0.0 0.00 0.00 0.00 9 1021.6
20201204184030 69 289 4.0 5.0 0.00 0.47 0.00 9 1021.6
20201204183800 69 272 2.0 0.0 0.00 0.00 0.00 9 1021.7
20201204183519 69 273 2.0 4.0 0.00 0.47 0.00 9 1021.7
20201204183310 69 235 5.0 0.0 0.00 0.00 0.00 9 1021.7
20201204182801 69 290 4.0 0.0 0.00 0.00 0.00 10 1021.8
20201204182318 69 299 5.0 0.0 0.00 0.00 0.00 9 1021.8
20201204182027 68 276 3.0 4.0 0.00 0.47 0.00 9 1021.8
20201204181800 68 281 4.0 0.0 0.00 0.00 0.00 10 1021.8
20201204181315 68 355 0.0 0.0 0.00 0.00 0.00 10 1021.8
20201204181021 67 355 0.0 1.0 0.00 0.47 0.00 11 1021.9
20201204180801 67 355 0.0 0.0 0.00 0.00 0.00 11 1021.9
20201204180257 66 355 2.0 0.0 0.00 0.00 0.00 10 1021.8
20201204175805 66 355 0.0 0.0 0.00 0.00 0.00 10 1022.0
20201204175300 66 355 2.0 0.0 0.00 0.00 0.00 11 1022.1
20201204174800 65 302 2.0 0.0 0.00 0.00 0.00 11 1022.1
20201204174519 64 304 0.0 1.0 0.00 0.47 0.00 12 1022.1
20201204174304 64 304 1.0 0.0 0.00 0.00 0.00 11 1022.2
20201204173758 64 304 0.0 0.0 0.00 0.00 0.00 11 1022.3
20201204173613 63 304 1.0 1.0 0.00 0.47 0.00 11 1022.1
20201204173310 64 304 1.0 0.0 0.00 0.00 0.00 11 1022.2
20201204173058 63 304 1.0 1.0 0.00 0.47 0.00 11 1022.2
20201204172759 63 304 2.0 0.0 0.00 0.00 0.00 11 1022.3
20201204172522 63 304 0.0 0.0 0.00 0.47 0.00 11 1022.2
20201204172306 63 304 2.0 0.0 0.00 0.00 0.00 11 1022.2
20201204171755 63 304 2.0 0.0 0.00 0.00 0.00 11 1022.2
20201204171303 63 304 1.0 0.0 0.00 0.00 0.00 11 1022.2
20201204170811 63 304 1.0 0.0 0.00 0.00 0.00 11 1022.2
20201204170523 62 291 2.0 3.0 0.00 0.47 0.00 11 1022.0
20201204170300 63 297 4.0 0.0 0.00 0.00 0.00 11 1022.0
20201204165759 63 302 2.0 0.0 0.00 0.00 0.00 11 1022.1
20201204165603 62 302 0.0 3.0 0.00 0.47 0.00 11 1022.1
20201204165314 63 302 2.0 0.0 0.00 0.00 0.00 11 1022.1
20201204165010 62 297 3.0 3.0 0.00 0.47 0.00 10 1022.0
20201204164756 62 315 4.0 0.0 0.00 0.00 0.00 11 1021.9
20201204164257 62 331 3.0 0.0 0.00 0.00 0.00 10 1022.0
20201204164101 61 335 1.0 2.0 0.47 0.47 0.00 11 1022.0
20201204163801 61 0 2.0 0.0 0.00 0.00 0.00 11 1022.1
20201204163516 60 0 1.0 1.0 0.47 0.47 0.00 11 1022.0
20201204163254 60 0 2.0 0.0 0.00 0.00 0.00 12 1022.0
20201204162753 60 0 0.0 0.0 0.00 0.00 0.00 12 1022.0
20201204162258 61 0 1.0 0.0 0.00 0.00 0.00 12 1022.1
20201204162036 60 0 1.0 2.0 0.47 0.47 0.00 13 1022.0
20201204161807 61 105 0.0 0.0 0.00 0.00 0.00 15 1022.0
20201204161318 61 109 1.0 0.0 0.00 0.00 0.00 15 1022.0
20201204161050 61 109 0.0 0.0 0.47 0.47 0.00 14 1022.0
20201204160811 61 133 0.0 0.0 0.00 0.00 0.00 13 1022.0
20201204160308 60 133 0.0 0.0 0.00 0.00 0.00 13 1021.8
20201204155804 60 133 1.0 0.0 0.00 0.00 0.00 13 1021.7
20201204155518 59 215 0.0 1.0 0.47 0.47 0.00 11 1021.7
20201204155324 59 215 1.0 0.0 0.00 0.00 0.00 11 1021.6
20201204154758 59 215 1.0 0.0 0.00 0.00 0.00 11 1021.7
20201204154544 58 215 0.0 0.0 0.47 0.47 0.00 11 1021.7
20201204154305 59 215 0.0 0.0 0.00 0.00 0.00 11 1021.6
20201204050809 56 41 2.0 0.0 0.00 0.00 0.00 13 1022.5
20201204050519 56 26 1.0 1.0 0.00 0.47 0.00 13 1022.5
20201204050304 57 49 0.0 0.0 0.00 0.00 0.00 13 1022.5
20201204050112 57 53 0.0 1.0 0.00 0.47 0.00 13 1022.5
20201204045822 57 64 0.0 0.0 0.00 0.00 0.00 13 1022.4
20201204045305 57 68 0.0 0.0 0.00 0.00 0.00 13 1022.4
20201204045106 57 71 0.0 2.0 0.00 0.47 0.00 15 1022.3
20201204044803 58 71 2.0 0.0 0.00 0.00 0.00 15 1022.4
20201204044323 59 83 1.0 0.0 0.00 0.00 0.00 19 1022.4
20201204044022 58 83 0.0 2.0 0.00 0.47 0.00 18 1022.4
20201204043813 59 83 0.0 0.0 0.00 0.00 0.00 18 1022.6
20201204043311 58 83 2.0 0.0 0.00 0.00 0.00 20 1022.5
20201204042805 58 83 2.0 0.0 0.00 0.00 0.00 15 1022.5
20201204042524 57 83 2.0 3.0 0.00 0.47 0.00 15 1022.4
20201204042309 58 83 3.0 0.0 0.00 0.00 0.00 16 1022.5
20201204041823 58 82 2.0 0.0 0.00 0.00 0.00 19 1022.4
20201204041546 57 81 2.0 2.0 0.00 0.47 0.00 18 1022.5
20201204041323 57 80 1.0 0.0 0.00 0.00 0.00 15 1022.5
20201204040802 58 86 3.0 0.0 0.00 0.00 0.00 17 1022.4
20201204040512 57 91 1.0 2.0 0.00 0.47 0.00 19 1022.4
20201204040302 58 91 1.0 0.0 0.00 0.00 0.00 15 1022.4
20201204040137 58 91 2.0 2.0 0.00 0.47 0.00 15 1022.4
20201204035817 59 103 2.0 0.0 0.00 0.00 0.00 15 1022.5
20201204035518 58 104 2.0 2.0 0.00 0.47 0.00 15 1022.4
20201204035328 59 114 2.0 0.0 0.00 0.00 0.00 17 1022.3
20201204034808 59 114 1.0 0.0 0.00 0.00 0.00 21 1022.5
20201204034303 59 114 0.0 0.0 0.00 0.00 0.00 20 1022.5
20201204034039 58 114 1.0 2.0 0.00 0.47 0.00 19 1022.5
20201204033804 59 114 2.0 0.0 0.00 0.00 0.00 23 1022.6
20201204033513 57 114 2.0 2.0 0.00 0.47 0.00 20 1022.4
20201204033312 58 86 2.0 0.0 0.00 0.00 0.00 15 1022.4
20201204032802 58 86 3.0 0.0 0.00 0.00 0.00 15 1022.5
20201204032526 58 86 2.0 2.0 0.00 0.47 0.00 15 1022.3
20201204032307 58 86 2.0 0.0 0.00 0.00 0.00 15 1022.3
20201204031806 58 82 2.0 0.0 0.00 0.00 0.00 16 1022.3
20201204031303 59 89 2.0 0.0 0.00 0.00 0.00 18 1022.2
20201204031024 59 122 2.0 2.0 0.00 0.47 0.00 20 1022.2
20201204030804 59 132 1.0 0.0 0.00 0.00 0.00 19 1022.2
20201204030317 60 132 1.0 0.0 0.00 0.00 0.00 22 1022.1
20201204030058 60 132 1.0 1.0 0.00 0.47 0.00 22 1021.9
20201204025803 60 132 2.0 0.0 0.00 0.00 0.00 21 1021.9
20201204025523 60 132 1.0 1.0 0.00 0.47 0.00 21 1022.0
20201204025300 60 132 2.0 0.0 0.00 0.00 0.00 20 1021.9
20201204024758 60 132 2.0 0.0 0.00 0.00 0.00 21 1021.9
20201204024649 59 132 2.0 3.0 0.00 0.47 0.00 21 1021.8
20201204024305 59 132 2.0 0.0 0.00 0.00 0.00 21 1021.8
20201204024016 59 130 2.0 3.0 0.00 0.47 0.00 16 1021.8
20201204023820 59 102 3.0 0.0 0.00 0.00 0.00 13 1021.8
20201204023559 59 98 1.0 2.0 0.00 0.47 0.00 13 1021.8
20201204023307 59 107 2.0 0.0 0.00 0.00 0.00 13 1021.9
20201204023051 59 95 1.0 2.0 0.00 0.47 0.00 12 1021.8
20201204022807 59 95 2.0 0.0 0.00 0.00 0.00 13 1021.7
20201204022312 60 99 4.0 0.0 0.00 0.00 0.00 14 1021.7
20201204022111 59 88 1.0 3.0 0.00 0.47 0.00 14 1021.6
20201204021815 60 88 1.0 0.0 0.00 0.00 0.00 16 1021.6
20201204021304 61 88 3.0 0.0 0.00 0.00 0.00 15 1021.6
20201204020759 62 282 3.0 0.0 0.00 0.00 0.00 19 1021.6
20201204020258 61 282 3.0 0.0 0.00 0.00 0.00 19 1021.4
20201204020027 61 273 2.0 2.0 0.00 0.47 0.00 19 1021.4
20201204015811 61 273 2.0 0.0 0.00 0.00 0.00 18 1021.4
20201204015309 61 279 1.0 0.0 0.00 0.00 0.00 19 1021.4
20201204015021 60 279 1.0 3.0 0.00 0.47 0.00 18 1021.3
20201204014817 61 279 2.0 0.0 0.00 0.00 0.00 15 1021.4
20201204014308 61 279 2.0 0.0 0.00 0.00 0.00 13 1021.4
20201204014029 60 279 2.0 3.0 0.00 0.47 0.00 13 1021.3
20201204013807 61 216 2.0 0.0 0.00 0.00 0.00 12 1021.4
20201204013301 61 183 3.0 0.0 0.00 0.00 0.00 12 1021.4
20201204012806 62 158 2.0 0.0 0.00 0.00 0.00 13 1021.4
20201204012602 61 158 2.0 2.0 0.00 0.47 0.00 12 1021.3
20201204012320 62 139 2.0 0.0 0.00 0.00 0.00 11 1021.3
20201204012020 62 139 0.0 1.0 0.00 0.47 0.00 11 1021.2
20201204011807 62 139 2.0 0.0 0.00 0.00 0.00 11 1021.2
20201204011303 62 139 2.0 0.0 0.00 0.00 0.00 11 1021.1
20201204010800 62 139 1.0 0.0 0.00 0.00 0.00 12 1021.1
20201204010257 63 139 1.0 0.0 0.00 0.00 0.00 13 1021.0
20201204010050 62 139 1.0 1.0 0.00 0.47 0.00 13 1020.9
20201204005804 63 139 2.0 0.0 0.00 0.00 0.00 13 1020.9
20201204005531 62 139 1.0 1.0 0.00 0.47 0.00 13 1021.0
20201204005306 63 139 1.0 0.0 0.00 0.00 0.00 14 1021.0
20201204004759 63 122 4.0 0.0 0.00 0.00 0.00 15 1020.9
20201204004720 63 85 1.0 4.0 0.00 0.47 0.00 15 1020.8
20201204004308 64 85 3.0 0.0 0.00 0.00 0.00 16 1020.9
20201204004022 64 83 3.0 4.0 0.00 0.47 0.00 15 1020.8
20201204003801 65 77 3.0 0.0 0.00 0.00 0.00 15 1020.8
20201204003518 65 123 0.0 6.0 0.00 0.47 0.00 15 1020.7
20201204003320 65 124 0.0 0.0 0.00 0.00 0.00 15 1020.8
20201204002812 66 119 2.0 0.0 0.00 0.00 0.00 14 1020.7
20201204002556 66 138 4.0 6.0 0.00 0.47 0.00 15 1020.6
20201204002307 67 80 2.0 0.0 0.00 0.00 0.00 13 1020.6
20201204001813 67 62 4.0 0.0 0.00 0.00 0.00 9 1020.5
20201204001557 67 92 3.0 7.0 0.00 0.47 0.00 9 1020.6
20201204001300 68 286 3.0 0.0 0.00 0.00 0.00 9 1020.6
20201204000804 68 50 2.0 0.0 0.00 0.00 0.00 9 1020.6
20201204000533 68 67 1.0 2.0 0.00 0.47 0.00 9 1020.6
20201204000318 68 66 0.0 0.0 0.00 0.00 0.00 9 1020.5
20201203235807 68 59 2.0 0.0 0.00 0.00 0.00 9 1020.7
20201203235527 68 4 1.0 4.0 0.00 0.47 0.00 9 1020.6
20201203235307 68 342 2.0 0.0 0.00 0.00 0.00 9 1020.7
20201203235010 68 59 2.0 6.0 0.00 0.47 0.00 9 1020.6
20201203234811 69 76 5.0 0.0 0.00 0.00 0.00 9 1020.7
20201203234306 69 36 3.0 0.0 0.00 0.00 0.00 9 1020.6
20201203234027 68 74 2.0 6.0 0.00 0.47 0.00 9 1020.5
20201203233802 69 95 3.0 0.0 0.00 0.00 0.00 8 1020.6
20201203233522 68 336 4.0 6.0 0.00 0.47 0.00 8 1020.5
20201203233322 69 62 6.0 0.0 0.00 0.00 0.00 8 1020.4
20201203233227 69 60 4.0 6.0 0.00 0.47 0.00 8 1020.4